カタログに戻る

STARLINK-33801

運用中通信VLEO
NORAD 63963·PAYLOAD·🇺🇸 United States

打ち上げ May 13, 2025 から Cape Canaveral Space Force Station

Loading…

次のパス (今後24時間)

TLE

最新Source: CelesTrak SupGP

元期: Sep 15, 2026, 02:27 UTC

1 63963C 25099M   26258.10256944 -.00025931  00000+0 -93937-3 0  2589
2 63963  42.9998 186.3800 0001710 274.6235 173.9183 15.27584881    16

AllMySatでSTARLINK-33801をリアルタイム追跡

Download on the App Store